Weather History for Michigan City, IN

Change the Weather History Date:

Thursday, January 23, 2014

  Actual Average (KVPZ) Record (KVPZ)
Temperature  
Mean Temperature 5 °F 23 °F  
Max Temperature 14 °F 31 °F 51 °F (2002)
Min Temperature -4 °F 16 °F -6 °F (2014)
Degree Days  
Heating Degree Days 60 42  
Month to date heating degree days 957  
Since 1 July heating degree days 3359  
Cooling Degree Days 0 0  
Month to date cooling degree days 0  
Year to date cooling degree days 0  
Moisture  
Dew Point 1 °F    
Average Humidity 75    
Maximum Humidity 86    
Minimum Humidity 62    
Precipitation  
Precipitation 0.00 in 0.06 in 0.26 in (2012)
Month to date precipitation 1.27  
Year to date precipitation 1.27  
Sea Level Pressure  
Sea Level Pressure 30.39 in    
Wind  
Wind Speed 12 mph (West)    
Max Wind Speed 17 mph    
Max Gust Speed 28 mph    
Visibility 4 miles    
Events Snow    
T = Trace of Precipitation, MM = Missing Value Source: NWS Daily Summary

Daily Weather History Graph

Daily Weather History Graph

Search for Another Location

Airport:

Trip Planner

Search our weather history database for the weather conditions in past years. The results will help you decide how hot, cold, wet, or windy it might be!

Date:

Astronomy

Jan. 23, 2014 Rise Set
Actual Time 7:07 AM CST 4:51 PM CST
Civil Twilight 6:37 AM CST 5:21 PM CST
Nautical Twilight 6:03 AM CST 5:55 PM CST
Astronomical Twilight 5:30 AM CST 6:28 PM CST
Moon No Moon Rise 10:35 AM CST (1/23)
Length of Visible Light 10h 44m
Length of Day
9h 44m
Waning Gibbous, 55% of the Moon is Illuminated
Jan 23
Waning Gibbous
Jan 23
Last Quarter
Jan 30
New
Feb 6
First Quarter
Feb 14
Full

Hourly Weather History & Observations

Time (CST) Temp. Windchill Dew Point Humidity Pressure Visibility Wind Dir Wind Speed Gust Speed Precip Events Conditions
12:15 AM 8.6 °F -7.7 °F -0.4 °F 67% 30.11 in 5.0 mi WNW 13.8 mph 20.7 mph N/A   Haze
12:35 AM 6.8 °F -10.7 °F -2.2 °F 67% 30.12 in 5.0 mi West 15.0 mph 23.0 mph N/A Snow Light Snow
12:55 AM 6.8 °F -9.3 °F -0.4 °F 72% 30.13 in 2.5 mi West 12.7 mph 19.6 mph N/A Snow Light Snow
1:15 AM 6.8 °F -6.9 °F -0.4 °F 72% 30.14 in 1.5 mi West 9.2 mph 24.2 mph N/A Snow Light Snow
1:35 AM 6.8 °F -10.0 °F 1.4 °F 79% 30.15 in 1.5 mi WNW 13.8 mph 23.0 mph N/A Snow Light Snow
1:55 AM 5.0 °F -10.0 °F -0.4 °F 78% 30.17 in 1.0 mi West 10.4 mph 19.6 mph N/A Snow Light Snow
2:15 AM 5.0 °F -13.0 °F -0.4 °F 78% 30.18 in 0.8 mi West 15.0 mph - N/A Snow Snow
2:35 AM 5.0 °F -11.6 °F -0.4 °F 78% 30.19 in 0.8 mi West 12.7 mph 20.7 mph N/A Snow Light Snow
2:55 AM 5.0 °F -11.6 °F -0.4 °F 78% 30.19 in 0.8 mi West 12.7 mph 24.2 mph N/A Snow Snow
3:15 AM 5.0 °F -11.6 °F -0.4 °F 78% 30.20 in 0.8 mi West 12.7 mph 25.3 mph N/A Snow Light Snow
3:35 AM 5.0 °F -11.6 °F -0.4 °F 78% 30.20 in 1.0 mi West 12.7 mph 20.7 mph N/A Snow Light Snow
3:55 AM 5.0 °F -13.6 °F -0.4 °F 78% 30.21 in 1.2 mi West 16.1 mph 21.9 mph N/A Snow Light Snow
4:15 AM 5.0 °F -11.6 °F -0.4 °F 78% 30.22 in 2.0 mi West 12.7 mph 19.6 mph N/A Snow Light Snow
4:35 AM 5.0 °F -13.0 °F -0.4 °F 78% 30.23 in 2.0 mi West 15.0 mph 21.9 mph N/A Snow Light Snow
4:55 AM 5.0 °F -10.0 °F -0.4 °F 78% 30.24 in 2.0 mi West 10.4 mph 18.4 mph N/A Snow Light Snow
5:15 AM 5.0 °F -10.8 °F -0.4 °F 78% 30.25 in 2.0 mi West 11.5 mph 19.6 mph N/A Snow Light Snow
5:35 AM 5.0 °F -11.6 °F -0.4 °F 78% 30.27 in 1.5 mi WNW 12.7 mph 19.6 mph N/A Snow Light Snow
5:55 AM 5.0 °F -11.6 °F -0.4 °F 78% 30.28 in 1.2 mi WNW 12.7 mph 18.4 mph N/A Snow Light Snow
6:15 AM 5.0 °F -10.8 °F -0.4 °F 78% 30.29 in 1.5 mi West 11.5 mph 19.6 mph N/A Snow Light Snow
6:35 AM 5.0 °F -11.6 °F -0.4 °F 78% 30.30 in 1.2 mi West 12.7 mph 17.3 mph N/A Snow Light Snow
6:55 AM 5.0 °F -11.6 °F -0.4 °F 78% 30.30 in 1.8 mi West 12.7 mph 18.4 mph N/A Snow Light Snow
7:15 AM 5.0 °F -12.3 °F -0.4 °F 78% 30.32 in 1.2 mi West 13.8 mph 20.7 mph N/A Snow Light Snow
7:35 AM 5.0 °F -10.0 °F -0.4 °F 78% 30.33 in 1.5 mi West 10.4 mph 17.3 mph N/A Snow Light Snow
7:55 AM 5.0 °F -10.8 °F -0.4 °F 78% 30.34 in 3.0 mi West 11.5 mph 17.3 mph N/A Snow Light Snow
8:15 AM 5.0 °F -11.6 °F -0.4 °F 78% 30.35 in 1.8 mi West 12.7 mph 18.4 mph N/A Snow Light Snow
8:35 AM 6.8 °F -10.0 °F 1.4 °F 79% 30.35 in 1.0 mi West 13.8 mph 19.6 mph N/A Snow Light Snow
8:55 AM 6.8 °F -10.0 °F 1.4 °F 79% 30.37 in 0.8 mi West 13.8 mph 27.6 mph N/A Snow Light Snow
9:15 AM 6.8 °F -10.0 °F 1.4 °F 79% 30.38 in 1.0 mi West 13.8 mph 19.6 mph N/A Snow Light Snow
9:35 AM 6.8 °F -11.8 °F 1.4 °F 79% 30.39 in 1.8 mi West 17.3 mph 23.0 mph N/A   Haze
9:55 AM 6.8 °F -8.6 °F -0.4 °F 72% 30.40 in 3.0 mi West 11.5 mph 21.9 mph N/A   Haze
10:15 AM 8.6 °F -8.3 °F 1.4 °F 73% 30.42 in 2.5 mi West 15.0 mph 24.2 mph N/A   Haze
10:35 AM 8.6 °F -7.0 °F 1.4 °F 73% 30.42 in 0.8 mi West 12.7 mph 18.4 mph N/A Snow Light Snow
10:55 AM 8.6 °F -7.0 °F 3.2 °F 79% 30.42 in 1.5 mi West 12.7 mph 20.7 mph N/A Snow Light Snow
11:15 AM 8.6 °F -7.0 °F 3.2 °F 79% 30.42 in 0.8 mi West 12.7 mph - N/A Snow Light Snow
11:35 AM 8.6 °F -5.5 °F 3.2 °F 79% 30.42 in 0.2 mi West 10.4 mph 21.9 mph N/A Snow Snow
11:55 AM 8.6 °F -8.3 °F 3.2 °F 79% 30.43 in 0.2 mi WSW 15.0 mph 24.2 mph N/A Snow Snow
12:15 PM 10.4 °F -5.4 °F 5.0 °F 79% 30.43 in 0.2 mi WSW 13.8 mph 17.3 mph N/A Snow Snow
12:35 PM 10.4 °F -4.8 °F 5.0 °F 79% 30.43 in 0.2 mi WSW 12.7 mph 18.4 mph N/A Snow Snow
12:55 PM 10.4 °F -6.6 °F 5.0 °F 79% 30.43 in 0.2 mi WSW 16.1 mph 19.6 mph N/A Snow Snow
1:15 PM 10.4 °F -3.3 °F 6.8 °F 85% 30.43 in 0.2 mi WSW 10.4 mph 19.6 mph N/A Snow Snow
1:35 PM 12.2 °F -2.5 °F 6.8 °F 79% 30.44 in 0.2 mi WSW 12.7 mph 19.6 mph N/A Snow Snow
1:55 PM 12.2 °F -3.7 °F 8.6 °F 85% 30.44 in 0.2 mi WSW 15.0 mph 19.6 mph N/A Snow Snow
2:15 PM 12.2 °F -0.2 °F 8.6 °F 85% 30.44 in 0.2 mi West 9.2 mph 16.1 mph N/A Snow Snow
2:35 PM 12.2 °F 1.7 °F 8.6 °F 85% 30.45 in 0.2 mi WSW 6.9 mph - N/A Snow Snow
2:55 PM 14.0 °F 2.9 °F 10.4 °F 86% 30.46 in 0.5 mi West 8.1 mph - N/A Snow Snow
3:15 PM 14.0 °F 1.2 °F 10.4 °F 86% 30.47 in 0.5 mi West 10.4 mph 16.1 mph N/A Snow Snow
3:35 PM 14.0 °F 2.0 °F 8.6 °F 79% 30.48 in 1.0 mi West 9.2 mph - N/A Snow Light Snow
3:55 PM 14.0 °F 1.2 °F 6.8 °F 73% 30.49 in 10.0 mi West 10.4 mph 18.4 mph N/A   Overcast
4:15 PM 14.0 °F -0.2 °F 5.0 °F 67% 30.50 in 5.0 mi West 12.7 mph 16.1 mph N/A   Haze
4:35 PM 14.0 °F 1.2 °F 5.0 °F 67% 30.50 in 5.0 mi West 10.4 mph 16.1 mph N/A   Haze
4:55 PM 14.0 °F 1.2 °F 5.0 °F 67% 30.51 in 10.0 mi West 10.4 mph - N/A   Overcast
5:15 PM 14.0 °F 0.5 °F 5.0 °F 67% 30.52 in 10.0 mi West 11.5 mph - N/A   Overcast
5:35 PM 12.2 °F -1.0 °F 3.2 °F 67% 30.52 in 10.0 mi WNW 10.4 mph - N/A   Overcast
5:55 PM 12.2 °F -0.2 °F 3.2 °F 67% 30.53 in 10.0 mi West 9.2 mph - N/A   Overcast
6:15 PM 12.2 °F 0.7 °F 3.2 °F 67% 30.54 in 10.0 mi West 8.1 mph - N/A   Overcast
6:35 PM 12.2 °F 0.7 °F 3.2 °F 67% 30.54 in 10.0 mi WNW 8.1 mph - N/A   Overcast
6:55 PM 12.2 °F -1.0 °F 1.4 °F 62% 30.55 in 10.0 mi WNW 10.4 mph 16.1 mph N/A   Overcast
7:15 PM 10.4 °F -1.5 °F 1.4 °F 67% 30.55 in 10.0 mi WNW 8.1 mph - N/A   Overcast
7:35 PM 10.4 °F -1.5 °F 1.4 °F 67% 30.54 in 10.0 mi West 8.1 mph - N/A   Overcast
7:55 PM 8.6 °F -1.3 °F 1.4 °F 73% 30.55 in 10.0 mi West 5.8 mph - N/A   Overcast
8:35 PM 6.8 °F -5.9 °F -0.4 °F 72% 30.54 in 10.0 mi WSW 8.1 mph - N/A   Overcast
8:55 PM 5.0 °F -6.9 °F -2.2 °F 72% 30.54 in 10.0 mi SW 6.9 mph - N/A   Overcast
9:15 PM 3.2 °F -11.3 °F -4.0 °F 72% 30.55 in 10.0 mi SW 9.2 mph - N/A   Overcast
9:55 PM 1.4 °F -11.3 °F -5.8 °F 72% 30.54 in 10.0 mi SW 6.9 mph - N/A   Overcast
10:15 PM 1.4 °F -11.3 °F -5.8 °F 72% 30.54 in 10.0 mi SW 6.9 mph - N/A   Overcast
10:35 PM 1.4 °F -11.3 °F -5.8 °F 72% 30.54 in 10.0 mi SW 6.9 mph - N/A   Overcast
10:55 PM -0.4 °F -13.4 °F -7.6 °F 72% 30.54 in 10.0 mi SW 6.9 mph - N/A   Overcast
11:15 PM -0.4 °F -12.0 °F -7.6 °F 72% 30.54 in 10.0 mi SW 5.8 mph - N/A   Mostly Cloudy
11:35 PM -4.0 °F -19.0 °F -9.4 °F 78% 30.53 in 10.0 mi SW 8.1 mph - N/A   Scattered Clouds
11:55 PM -4.0 °F -17.8 °F -9.4 °F 78% 30.53 in 10.0 mi SW 6.9 mph - N/A   Clear